Flag for Canada Weather past 2 weeks in Camrose, Alberta, Canada

25 °F

Passing clouds.

Feels Like: 20 °F
Forecast: 10 / 27 °F
Wind: 3 mph from West

Location: Edmonton International

Current Time: Nov 28, 2015 at 3:16:37 PM

Latest Report: Nov 28, 2015 at 2:00 PM

Visibility: 15 mi

Pressure: 30.29 "Hg (27.56 "Hg at 744m altitude)

Humidity: 54%

Dew point: 10 °F

Location of CamroseLocation

Historic Weather in Camrose — Graph


Camrose temperature yesterday

Maximum temperature yesterday: 37 °F (at 4:00 PM)
Minimum temperature yesterday: 10 °F (at 3:00 AM)
Average temperature yesterday: 24 °F

Past Weeks' High & Low Weather Summary

High45 °F (Nov 22, 2:00 PM)93% (Nov 13, 10:00 PM)30.57 "Hg (Nov 13, 10:00 PM)
Low-20 °F (Nov 25, 4:00 AM)34% (Nov 22, 2:00 PM)29.20 "Hg (Nov 17, 6:00 PM)
Average22 °F71%30.02 "Hg
* Reported Nov 13 2:00 PM — Nov 28 2:00 PM, Camrose, Weather by CustomWeather, © 2015

Note: Actual official high and low records may vary slightly from our data, if they occured in-between our weather recording intervals... More about our weather records


Camrose weather history for previous 24 hours

Time TempWeatherWind HumidityBarometerVisibility
2:00 PM
Sat, Nov 28
25 °FPassing clouds.3 mph54%30.29 "Hg15 mi
1:00 PM25 °FPassing clouds.3 mph50%30.28 "Hg15 mi
12:00 PM23 °FScattered clouds.7 mph50%30.31 "Hg15 mi
11:00 AM10 °FPartly sunny.7 mph67%30.34 "Hg15 mi
10:00 AM5 °FScattered clouds.7 mph66%30.35 "Hg15 mi
9:00 AM1 °FPassing clouds.8 mph71%30.37 "Hg15 mi
8:00 AM1 °FPassing clouds.5 mph78%30.37 "Hg15 mi
7:00 AM0 °FPassing clouds.5 mph71%30.37 "Hg15 mi
6:00 AM1 °FFrigid.6 mph71%30.38 "Hg15 mi
5:00 AM1 °FPassing clouds.6 mph78%30.37 "Hg15 mi
4:00 AM3 °FPassing clouds.5 mph72%30.36 "Hg15 mi
3:00 AM18 °FPassing clouds.5 mph62%30.35 "Hg15 mi
2:00 AM5 °FPassing clouds.5 mph60%30.37 "Hg15 mi
1:00 AM23 °FPassing clouds.2 mph50%30.35 "Hg15 mi
12:00 AM19 °FPassing clouds.6 mph53%30.36 "Hg15 mi
11:00 PM
Fri, Nov 27
21 °FPassing clouds.3 mph54%30.36 "Hg15 mi
10:00 PM21 °FPassing clouds.6 mph54%30.36 "Hg15 mi
9:00 PM21 °FPassing clouds.8 mph58%30.36 "Hg15 mi
8:00 PM19 °FPassing clouds.6 mph58%30.36 "Hg15 mi
7:00 PM21 °FPassing clouds.5 mph54%30.36 "Hg15 mi
6:00 PM19 °FPassing clouds.6 mph63%30.36 "Hg15 mi
5:00 PM30 °FPassing clouds.5 mph47%30.32 "Hg15 mi
4:00 PM37 °FPartly sunny.12 mph35%30.31 "Hg15 mi
3:00 PM36 °FScattered clouds.9 mph44%30.32 "Hg15 mi
Weather by CustomWeather, © 2015

See weather overviewHow to use our weather pages